DECAM EDDC-EDDP

Flight info

Callsign DECAM
Flight time 0h 31m
Altitude 7000
Route
Aircraft SR22/L-SDGRY/S

Departure

Time 2026-05-06 18:26
Airport Dresden Airport (EDDC)

Arrival

Time 2026-05-06 18:57
Airport Leipzig/Halle Airport (EDDP)
Time Latitude Longitude Altitude Speed Heading
2026-05-06 18:26 51.29072 13.56613 3424 ft 145 kts 294°
2026-05-06 18:26 51.29514 13.55166 3708 ft 145 kts 293°
2026-05-06 18:26 51.29966 13.53729 3993 ft 143 kts 294°
2026-05-06 18:26 51.30332 13.52275 4273 ft 141 kts 270°
2026-05-06 18:27 51.30030 13.50825 4567 ft 138 kts 243°
2026-05-06 18:27 51.29609 13.49416 4734 ft 146 kts 244°
2026-05-06 18:27 51.29168 13.47899 4756 ft 158 kts 244°
2026-05-06 18:27 51.28695 13.46265 4792 ft 164 kts 244°
2026-05-06 18:28 51.28216 13.44624 4916 ft 162 kts 244°
2026-05-06 18:28 51.27739 13.42991 5005 ft 162 kts 244°
2026-05-06 18:28 51.27313 13.41329 5097 ft 163 kts 256°
2026-05-06 18:28 51.27268 13.39500 5188 ft 165 kts 268°
2026-05-06 18:29 51.27268 13.37665 5298 ft 165 kts 268°
2026-05-06 18:29 51.27267 13.35857 5401 ft 164 kts 268°
2026-05-06 18:29 51.27266 13.34008 5498 ft 165 kts 268°
2026-05-06 18:29 51.27264 13.32197 5594 ft 165 kts 267°
2026-05-06 18:30 51.27261 13.30364 5705 ft 165 kts 267°
2026-05-06 18:30 51.27261 13.28533 5806 ft 165 kts 268°
2026-05-06 18:30 51.27259 13.26699 5906 ft 165 kts 267°
2026-05-06 18:30 51.27257 13.24859 6013 ft 165 kts 267°
2026-05-06 18:31 51.27254 13.23023 6110 ft 166 kts 267°
2026-05-06 18:31 51.27251 13.21176 6205 ft 165 kts 267°
2026-05-06 18:31 51.27249 13.19337 6298 ft 166 kts 266°
2026-05-06 18:31 51.27246 13.17493 6387 ft 166 kts 267°
2026-05-06 18:32 51.27242 13.15644 6484 ft 167 kts 267°
2026-05-06 18:32 51.27240 13.13820 6585 ft 166 kts 267°
2026-05-06 18:32 51.27237 13.11974 6684 ft 166 kts 267°
2026-05-06 18:32 51.27231 13.10124 6768 ft 167 kts 266°
2026-05-06 18:33 51.27224 13.08234 6772 ft 172 kts 266°
2026-05-06 18:33 51.27219 13.06314 6778 ft 174 kts 267°
2026-05-06 18:33 51.27217 13.04378 6779 ft 175 kts 267°
2026-05-06 18:33 51.27212 13.02433 6779 ft 175 kts 266°
2026-05-06 18:34 51.27206 13.00482 6779 ft 176 kts 266°
2026-05-06 18:34 51.27198 12.98528 6779 ft 176 kts 267°
2026-05-06 18:34 51.27192 12.96562 6786 ft 177 kts 267°
2026-05-06 18:34 51.27185 12.94624 6784 ft 177 kts 267°
2026-05-06 18:35 51.27176 12.92657 6784 ft 177 kts 267°
2026-05-06 18:35 51.27169 12.90696 6784 ft 177 kts 267°
2026-05-06 18:35 51.27160 12.88735 6783 ft 177 kts 267°
2026-05-06 18:35 51.27164 12.86769 6781 ft 177 kts 271°
2026-05-06 18:36 51.27260 12.84807 6785 ft 177 kts 268°
2026-05-06 18:36 51.27264 12.82840 6784 ft 177 kts 267°
2026-05-06 18:36 51.27261 12.80877 6782 ft 177 kts 267°
2026-05-06 18:36 51.27257 12.78905 6783 ft 177 kts 267°
2026-05-06 18:37 51.27252 12.76942 6776 ft 176 kts 267°
2026-05-06 18:37 51.27247 12.75009 6778 ft 176 kts 267°
2026-05-06 18:37 51.27242 12.73051 6777 ft 176 kts 267°
2026-05-06 18:37 51.27234 12.71093 6776 ft 176 kts 267°
2026-05-06 18:38 51.27225 12.69136 6779 ft 176 kts 267°
2026-05-06 18:38 51.27222 12.67177 6777 ft 176 kts 268°
2026-05-06 18:38 51.27214 12.65216 6777 ft 177 kts 267°
2026-05-06 18:38 51.27208 12.63252 6776 ft 177 kts 267°
2026-05-06 18:39 51.27200 12.61295 6776 ft 177 kts 267°
2026-05-06 18:39 51.27191 12.59334 6776 ft 176 kts 267°
2026-05-06 18:39 51.27186 12.57374 6774 ft 176 kts 267°
2026-05-06 18:40 51.27172 12.53458 6773 ft 176 kts 267°
2026-05-06 18:40 51.27160 12.51500 6774 ft 176 kts 267°
2026-05-06 18:40 51.27155 12.49571 6774 ft 176 kts 267°
2026-05-06 18:40 51.27152 12.47670 6774 ft 163 kts 268°
2026-05-06 18:41 51.27152 12.45943 6762 ft 149 kts 268°
2026-05-06 18:41 51.27159 12.44324 6559 ft 144 kts 268°
2026-05-06 18:41 51.27160 12.42616 6168 ft 156 kts 268°
2026-05-06 18:41 51.27160 12.40914 5845 ft 153 kts 268°
2026-05-06 18:42 51.27153 12.39206 5467 ft 154 kts 268°
2026-05-06 18:42 51.27141 12.37508 5108 ft 151 kts 268°
2026-05-06 18:42 51.27125 12.35837 4624 ft 150 kts 268°
2026-05-06 18:42 51.27103 12.34175 4143 ft 150 kts 268°
2026-05-06 18:43 51.27076 12.32510 3670 ft 149 kts 268°
2026-05-06 18:43 51.27045 12.30857 3213 ft 149 kts 268°
2026-05-06 18:43 51.27003 12.29168 2684 ft 155 kts 268°
2026-05-06 18:43 51.26948 12.27389 2319 ft 163 kts 267°
2026-05-06 18:44 51.26892 12.25618 2159 ft 162 kts 267°
2026-05-06 18:44 51.26827 12.23767 2005 ft 168 kts 268°
2026-05-06 18:44 51.26751 12.21894 2009 ft 171 kts 266°
2026-05-06 18:44 51.26679 12.19989 2010 ft 173 kts 266°
2026-05-06 18:45 51.26728 12.18094 2003 ft 174 kts 284°
2026-05-06 18:45 51.27309 12.16404 1939 ft 177 kts 312°
2026-05-06 18:45 51.28106 12.14931 1891 ft 172 kts 312°
2026-05-06 18:45 51.28630 12.14025 1911 ft 164 kts 328°
2026-05-06 18:46 51.29977 12.14269 1899 ft 154 kts 32°
2026-05-06 18:46 51.30923 12.15130 1911 ft 157 kts 32°
2026-05-06 18:46 51.31868 12.15952 1925 ft 158 kts 30°
2026-05-06 18:46 51.32825 12.16812 1934 ft 157 kts 34°
2026-05-06 18:47 51.33779 12.17690 1923 ft 159 kts 29°
2026-05-06 18:47 51.34821 12.18346 1910 ft 162 kts 18°
2026-05-06 18:47 51.35937 12.18673 1853 ft 166 kts
2026-05-06 18:47 51.37094 12.18406 1807 ft 170 kts 349°
2026-05-06 18:48 51.38209 12.18456 1767 ft 158 kts 14°
2026-05-06 18:48 51.39312 12.18485 1696 ft 160 kts 359°
2026-05-06 18:48 51.40102 12.17358 1700 ft 169 kts 287°
2026-05-06 18:48 51.40158 12.15471 1579 ft 173 kts 269°
2026-05-06 18:49 51.40112 12.13549 1526 ft 170 kts 266°
2026-05-06 18:49 51.40045 12.11674 1512 ft 166 kts 268°
2026-05-06 18:49 51.39996 12.09855 1505 ft 161 kts 268°
2026-05-06 18:49 51.39949 12.08094 1499 ft 154 kts 268°
2026-05-06 18:50 51.39904 12.06411 1501 ft 148 kts 268°
2026-05-06 18:50 51.39855 12.04795 1500 ft 142 kts 269°
2026-05-06 18:50 51.39797 12.03238 1501 ft 138 kts 268°
2026-05-06 18:50 51.39740 12.01710 1504 ft 136 kts 268°
2026-05-06 18:51 51.39682 12.00211 1501 ft 134 kts 268°
2026-05-06 18:51 51.39658 11.98728 1495 ft 132 kts 282°
2026-05-06 18:51 51.40068 11.97480 1499 ft 125 kts 327°
2026-05-06 18:51 51.40858 11.97334 1496 ft 117 kts 28°
2026-05-06 18:52 51.41339 11.98300 1509 ft 114 kts 62°
2026-05-06 18:52 51.41671 11.99384 1506 ft 102 kts 66°
2026-05-06 18:52 51.41955 12.00386 1499 ft 96 kts 66°
2026-05-06 18:52 51.42086 12.01532 1511 ft 112 kts 77°
2026-05-06 18:53 51.42202 12.02806 1519 ft 118 kts 81°
2026-05-06 18:53 51.42290 12.04144 1514 ft 123 kts 83°
2026-05-06 18:53 51.42374 12.05530 1513 ft 126 kts 83°
2026-05-06 18:53 51.42429 12.06899 1516 ft 121 kts 85°
2026-05-06 18:54 51.42498 12.08217 1521 ft 117 kts 85°
2026-05-06 18:54 51.42562 12.09506 1518 ft 115 kts 84°
2026-05-06 18:54 51.42618 12.10777 1519 ft 117 kts 84°
2026-05-06 18:54 51.42683 12.12086 1518 ft 119 kts 84°
2026-05-06 18:55 51.42744 12.13421 1467 ft 123 kts 84°
2026-05-06 18:55 51.42809 12.14814 1307 ft 126 kts 85°
2026-05-06 18:55 51.42867 12.16158 1133 ft 117 kts 83°
2026-05-06 18:55 51.42929 12.17425 966 ft 112 kts 84°
2026-05-06 18:56 51.42982 12.18664 819 ft 109 kts 82°
2026-05-06 18:56 51.43042 12.19829 695 ft 102 kts 82°
2026-05-06 18:56 51.43097 12.20962 558 ft 102 kts 83°
2026-05-06 18:56 51.43146 12.22031 440 ft 88 kts 83°
2026-05-06 18:57 51.43184 12.22876 431 ft 55 kts 87°
2026-05-06 18:57 51.43208 12.23383 436 ft 59 kts 85°
2026-05-06 18:57 51.43204 12.23835 437 ft 19 kts 174°
2026-05-06 18:57 51.43094 12.23562 432 ft 34 kts 237°
2026-05-06 18:58 51.42971 12.23439 435 ft 22 kts 175°
2026-05-06 18:58 51.42898 12.23386 432 ft 19 kts 268°
2026-05-06 18:58 51.42885 12.23106 432 ft 31 kts 266°
2026-05-06 18:58 51.42866 12.22738 434 ft 35 kts 264°
2026-05-06 18:59 51.42849 12.22353 432 ft 35 kts 264°
2026-05-06 18:59 51.42831 12.21965 427 ft 33 kts 265°
2026-05-06 18:59 51.42815 12.21636 421 ft 33 kts 265°
2026-05-06 18:59 51.42791 12.21273 431 ft 24 kts 246°
2026-05-06 19:00 51.42683 12.21195 425 ft 29 kts 197°
2026-05-06 19:00 51.42468 12.21108 431 ft 35 kts 193°
2026-05-06 19:00 51.42250 12.21007 426 ft 27 kts 192°
2026-05-06 19:00 51.42081 12.20934 421 ft 28 kts 194°
2026-05-06 19:01 51.41964 12.21121 422 ft 22 kts 103°
2026-05-06 19:01 51.41935 12.21282 423 ft 23 kts 107°
2026-05-06 19:01 51.41920 12.21440 431 ft 8 kts 360°
2026-05-06 19:01 51.41996 12.21453 423 ft 0 kts 14°